Regional Weather Roundup
Issued by NWS Goodland, KS

Home | Current Version | Previous Version | Graphics & Text | Print | Product List | Glossary On
Versions: 1 2 3 4 5 6 7 8 9 10 11 12 13 14 15 16 17 18 19 20 21 22 23 24 25 26 27 28 29 30 31 32 33 34 35 36 37 38 39 40 41 42 43 44 45 46 47 48 49 50
000
ASUS43 KGLD 251659
RWRGLD

GOODLAND FORECAST AREA HOURLY WEATHER ROUNDUP
NATIONAL WEATHER SERVICE GOODLAND KS
1100 AM MDT MON MAY 25 2015

...OFFICIAL OBSERVATIONS...

CITY           SKY/WX    TMP DP  RH WIND       PRES   REMARKS
GOODLAND KS    MOSUNNY   64  51  62 NW14      29.84S
HILL CITY KS   MOSUNNY   69  55  60 S8        29.82R
IMPERIAL NEB   CLOUDY    61  50  67 NW16G23   29.82S
MCCOOK NEB     SUNNY     66  53  63 NW12      29.78F
AKRON CO       PTSUNNY   56  46  69 NW23      29.89S
BURLINGTON CO  MOSUNNY   62  48  60 NW15      29.86F
LIMON CO       MOSUNNY   59  44  57 N13       29.92S
$$

...UNOFFICIAL OBSERVATIONS...

CITY           SKY/WX    TMP DP  RH WIND       PRES   REMARKS
COLBY KS       SUNNY     66  55  68 W9G17     29.83S
GOVE KS          N/A     67  32  27 MISG        N/A
NORTON KS      MOSUNNY   68  52  56 S8        29.80R
SHARON SPRINGS   N/A     66  52  60 MISG        N/A
KIT CARSON CO    N/A     60  49  67 MISG        N/A
YUMA CO          N/A     65  53  65 CALM        N/A
$$


USA.gov is the U.S. government's official web portal to all federal, state and local government web resources and services.